Simultaneous Nadir Overpasses (SNOs) Predictions

Prediction of SNOs between GOES-15 and LANDSAT-8 Satellite Orbit:

Table of predicted SNOs for the next 14.0 days since TLE Epoch: 6/3/2023
Index Date Time (GOES-15) GOES-15 Lat,Lon LANDSAT-8 Lat,Lon Distance(km) Time Diff (sec)
1 06/04/2023 08:30:28 0.23,-156.70 0.56,-155.11 180.47 80
2 06/04/2023 20:54:24 -0.21,-156.93 0.48,-160.28 380.88 80
3 06/06/2023 20:39:37 -0.23,-157.75 -0.30,-157.36 44.58 80
4 06/08/2023 20:27:31 -0.24,-158.58 -1.15,-154.45 469.59 80
5 06/09/2023 08:51:35 0.22,-158.78 0.01,-159.64 98.01 80
6 06/11/2023 08:36:49 0.23,-159.60 0.87,-156.73 326.68 80
7 06/11/2023 21:00:45 -0.21,-159.82 0.22,-161.89 235.18 80
8 06/13/2023 20:45:58 -0.22,-160.63 -0.60,-158.98 189.18 80
9 06/14/2023 09:10:02 0.19,-160.84 -0.53,-164.16 378.23 80
10 06/16/2023 08:55:15 0.20,-161.64 0.30,-161.25 45.10 80
